Voltar ao catálogo

TRANSIT 11 DEB

AtivoPO
NORAD 11991·DEBRIS·🇺🇸 United States

Lançado Jan 28, 1966 de Vandenberg Space Force Base

Loading…

Próximas Passagens (próximas 24 horas)

TLE

AtualizadoSource: Space-Track

Época: Sep 14, 2026, 04:38 UTC

1 11991U 66005H   26257.19332855  .00000418  00000-0  31911-3 0  9997
2 11991  90.1631 343.9999 0176222  68.7695 320.9383 13.84976247 33724

Acompanhe TRANSIT 11 DEB em tempo real com AllMySat

Download on the App Store